This is the latest recevied weather packets stored in our database for station/object KF7SOJ. If no packets are shown the sender has not sent any weather packets the latest 10 day(s).
| Time | Temp. | Humidity | Pressure | Rain* | Wind** | Luminosity | Snow |
|---|---|---|---|---|---|---|---|
| 1777997976 | 8.89° C | 39% | 933.5 hPa | 0 mm | - | 872 W/m² | - |
| 1777997672 | 8.89° C | 39% | 933.5 hPa | 0 mm | - | 872 W/m² | - |
| 1777997370 | 8.89° C | 40% | 933.6 hPa | 0 mm | - | 796 W/m² | - |
| 1777997069 | 8.89° C | 41% | 933.6 hPa | 0 mm | - | 810 W/m² | - |
| 1777996765 | 8.33° C | 41% | 933.5 hPa | 0 mm | - | 689 W/m² | - |
| 1777996461 | 7.78° C | 42% | 933.6 hPa | 0 mm | - | 685 W/m² | - |
| 1777996158 | 8.33° C | 42% | 933.6 hPa | 0 mm | - | 619 W/m² | - |
| 1777995854 | 8.33° C | 42% | 933.6 hPa | 0 mm | - | 656 W/m² | - |
| 1777995550 | 7.22° C | 43% | 933.8 hPa | 0 mm | - | 460 W/m² | - |
| 1777995248 | 7.22° C | 47% | 933.5 hPa | 0 mm | - | 316 W/m² | - |
| 1777994944 | 7.22° C | 47% | 933.5 hPa | 0 mm | - | 316 W/m² | - |
| 1777994642 | 7.22° C | 47% | 933.6 hPa | 0 mm | - | 316 W/m² | - |
| 1777994341 | 7.22° C | 49% | 933.8 hPa | 0 mm | - | 255 W/m² | - |
| 1777994039 | 7.22° C | 50% | 933.6 hPa | 0 mm | - | 507 W/m² | - |
| 1777993736 | 7.22° C | 52% | 933.8 hPa | 0 mm | - | 369 W/m² | - |
| 1777993433 | 6.67° C | 54% | 933.6 hPa | 0 mm | - | 432 W/m² | - |
| 1777993132 | 6.67° C | 52% | 933.8 hPa | 0 mm | - | 332 W/m² | - |
| 1777992831 | 6.11° C | 52% | 933.7 hPa | 0 mm | - | 386 W/m² | - |
| 1777992528 | 6.11° C | 53% | 933.7 hPa | 0 mm | - | 432 W/m² | - |
| 1777992227 | 6.11° C | 53% | 933.7 hPa | 0 mm | - | 264 W/m² | - |
| 1777991923 | 5.56° C | 54% | 933.7 hPa | 0 mm | - | 366 W/m² | - |
| 1777991621 | 5° C | 56% | 933.8 hPa | 0 mm | - | 202 W/m² | - |
| 1777991318 | 5.56° C | 54% | 933.9 hPa | 0 mm | - | 181 W/m² | - |
| 1777991015 | 5.56° C | 52% | 933.9 hPa | 0 mm | - | 157 W/m² | - |
| 1777990712 | 6.11° C | 53% | 934.1 hPa | 0 mm | - | 242 W/m² | - |
* Rain latest hour (hover to see other rain measurements)
** Current wind speed in m/s (hover to see current wind gust speed)